| time (UTC) | temp F | wind direction | speed MPH | gust MPH | rain 1hr in | rain 24hr in | rain mn in | humidity % | barometer mb |
| 20260504050523 | 49 | 0 | 0.0 | 1.0 | 0.00 | 0.00 | 0.00 | 68 | 1017.4 |
| 20260504045524 | 49 | 0 | 0.0 | 3.0 | 0.00 | 0.00 | 0.00 | 61 | 1017.3 |
| 20260504045024 | 49 | 0 | 0.0 | 3.0 | 0.00 | 0.00 | 0.00 | 63 | 1017.3 |
| 20260504044539 | 49 | 0 | 0.0 | 0.0 | 0.00 | 0.00 | 0.00 | 65 | 1017.3 |
| 20260504044023 | 48 | 0 | 0.0 | 0.0 | 0.00 | 0.00 | 0.00 | 63 | 1017.3 |
| 20260504043524 | 48 | 0 | 0.0 | 0.0 | 0.00 | 0.00 | 0.00 | 67 | 1017.4 |
| 20260504043043 | 48 | 0 | 0.0 | 0.0 | 0.00 | 0.00 | 0.00 | 73 | 1017.4 |
| 20260504042524 | 48 | 0 | 0.0 | 0.0 | 0.00 | 0.00 | 0.00 | 72 | 1017.3 |
| 20260504042024 | 48 | 0 | 0.0 | 0.0 | 0.00 | 0.00 | 0.00 | 71 | 1017.4 |
| 20260504041547 | 48 | 0 | 0.0 | 0.0 | 0.00 | 0.00 | 0.00 | 71 | 1017.4 |
| 20260504041023 | 48 | 0 | 0.0 | 0.0 | 0.00 | 0.00 | 0.00 | 67 | 1017.3 |
| 20260504040525 | 48 | 0 | 0.0 | 0.0 | 0.00 | 0.00 | 0.00 | 70 | 1017.4 |
| 20260504040100 | 48 | 0 | 0.0 | 0.0 | 0.00 | 0.00 | 0.00 | 67 | 1017.3 |
| 20260504035523 | 48 | 0 | 0.0 | 0.0 | 0.00 | 0.00 | 0.00 | 71 | 1017.4 |
| 20260504035023 | 48 | 0 | 0.0 | 1.0 | 0.00 | 0.00 | 0.00 | 68 | 1017.3 |
| 20260504034544 | 48 | 0 | 0.0 | 1.0 | 0.00 | 0.00 | 0.00 | 67 | 1017.4 |
| 20260504034027 | 49 | 0 | 0.0 | 1.0 | 0.00 | 0.00 | 0.00 | 64 | 1017.4 |
| 20260504033523 | 49 | 0 | 0.0 | 1.0 | 0.00 | 0.00 | 0.00 | 59 | 1017.5 |
| 20260504033042 | 49 | 0 | 0.0 | 1.0 | 0.00 | 0.00 | 0.00 | 58 | 1017.5 |
| 20260504032524 | 49 | 142 | 0.0 | 1.0 | 0.00 | 0.00 | 0.00 | 57 | 1017.4 |
| 20260504032023 | 49 | 142 | 0.0 | 1.0 | 0.00 | 0.00 | 0.00 | 57 | 1017.4 |
| 20260504031552 | 49 | 0 | 0.0 | 1.0 | 0.00 | 0.00 | 0.00 | 58 | 1017.4 |
| 20260504031023 | 49 | 0 | 0.0 | 1.0 | 0.00 | 0.00 | 0.00 | 60 | 1017.4 |
| 20260504030523 | 49 | 0 | 0.0 | 1.0 | 0.00 | 0.00 | 0.00 | 61 | 1017.6 |
| 20260504030042 | 49 | 0 | 0.0 | 1.0 | 0.00 | 0.00 | 0.00 | 56 | 1017.6 |
| 20260504025524 | 49 | 0 | 0.0 | 1.0 | 0.00 | 0.00 | 0.00 | 59 | 1017.6 |
| 20260504025024 | 49 | 0 | 0.0 | 0.0 | 0.00 | 0.00 | 0.00 | 60 | 1017.7 |
| 20260504024545 | 49 | 0 | 0.0 | 0.0 | 0.00 | 0.00 | 0.00 | 63 | 1017.6 |
| 20260504024023 | 49 | 0 | 0.0 | 1.0 | 0.00 | 0.00 | 0.00 | 58 | 1017.6 |
| 20260504023523 | 49 | 146 | 0.0 | 1.0 | 0.00 | 0.00 | 0.00 | 56 | 1017.6 |
| 20260504023046 | 49 | 0 | 0.0 | 1.0 | 0.00 | 0.00 | 0.00 | 57 | 1017.7 |
| 20260504022526 | 49 | 70 | 0.0 | 1.0 | 0.00 | 0.00 | 0.00 | 57 | 1017.7 |
| 20260504022024 | 49 | 0 | 0.0 | 1.0 | 0.00 | 0.00 | 0.00 | 57 | 1017.6 |
| 20260504021543 | 49 | 0 | 0.0 | 1.0 | 0.00 | 0.00 | 0.00 | 58 | 1017.5 |
| 20260504021023 | 49 | 71 | 0.0 | 1.0 | 0.00 | 0.00 | 0.00 | 56 | 1017.5 |
| 20260504020523 | 50 | 0 | 0.0 | 1.0 | 0.00 | 0.00 | 0.00 | 56 | 1017.5 |
| 20260504020050 | 50 | 0 | 0.0 | 1.0 | 0.00 | 0.00 | 0.00 | 57 | 1017.4 |
| 20260504015523 | 50 | 0 | 0.0 | 1.0 | 0.00 | 0.00 | 0.00 | 56 | 1017.5 |
| 20260504015025 | 50 | 0 | 0.0 | 0.0 | 0.00 | 0.00 | 0.00 | 55 | 1017.6 |
| 20260504014542 | 51 | 0 | 0.0 | 0.0 | 0.00 | 0.00 | 0.00 | 56 | 1017.6 |
| 20260504014022 | 51 | 0 | 0.0 | 0.0 | 0.00 | 0.00 | 0.00 | 53 | 1017.6 |
| 20260504013522 | 51 | 0 | 0.0 | 0.0 | 0.00 | 0.00 | 0.00 | 51 | 1017.7 |
| 20260504013046 | 51 | 0 | 0.0 | 1.0 | 0.00 | 0.00 | 0.00 | 51 | 1017.6 |
| 20260504012523 | 51 | 0 | 0.0 | 1.0 | 0.00 | 0.00 | 0.00 | 51 | 1017.5 |
| 20260504012024 | 51 | 0 | 0.0 | 1.0 | 0.00 | 0.00 | 0.00 | 50 | 1017.4 |
| 20260504011546 | 51 | 66 | 0.0 | 1.0 | 0.00 | 0.00 | 0.00 | 49 | 1017.6 |
| 20260504011024 | 52 | 0 | 0.0 | 1.0 | 0.00 | 0.00 | 0.00 | 50 | 1017.4 |
| 20260504010523 | 52 | 0 | 0.0 | 1.0 | 0.00 | 0.00 | 0.00 | 49 | 1017.5 |
| 20260504010035 | 52 | 0 | 0.0 | 0.0 | 0.00 | 0.00 | 0.00 | 49 | 1017.4 |
| 20260504005523 | 52 | 0 | 0.0 | 1.0 | 0.00 | 0.00 | 0.00 | 48 | 1017.4 |
| 20260504005023 | 52 | 0 | 0.0 | 1.0 | 0.00 | 0.00 | 0.00 | 47 | 1017.4 |
| 20260504004541 | 52 | 0 | 0.0 | 0.0 | 0.00 | 0.00 | 0.00 | 47 | 1017.3 |
| 20260504004024 | 52 | 0 | 0.0 | 1.0 | 0.00 | 0.00 | 0.00 | 47 | 1017.3 |
| 20260504003523 | 53 | 0 | 0.0 | 1.0 | 0.00 | 0.00 | 0.00 | 47 | 1017.4 |
| 20260504003042 | 53 | 0 | 0.0 | 1.0 | 0.00 | 0.00 | 0.00 | 47 | 1017.3 |
| 20260504002523 | 53 | 0 | 0.0 | 1.0 | 0.00 | 0.00 | 0.00 | 47 | 1017.4 |
| 20260504002023 | 53 | 0 | 0.0 | 1.0 | 0.00 | 0.00 | 0.00 | 45 | 1017.3 |
| 20260504001548 | 53 | 0 | 0.0 | 0.0 | 0.00 | 0.00 | 0.00 | 46 | 1017.2 |
| 20260504001024 | 54 | 0 | 0.0 | 0.0 | 0.00 | 0.00 | 0.00 | 45 | 1017.2 |
| 20260504000522 | 54 | 0 | 0.0 | 1.0 | 0.00 | 0.00 | 0.00 | 45 | 1017.3 |
| 20260504000038 | 54 | 232 | 0.0 | 1.0 | 0.00 | 0.00 | 0.00 | 45 | 1017.4 |
| 20260503235524 | 54 | 0 | 0.0 | 2.0 | 0.00 | 0.00 | 0.00 | 45 | 1017.3 |
| 20260503235022 | 55 | 0 | 0.0 | 2.0 | 0.00 | 0.00 | 0.00 | 45 | 1017.4 |
| 20260503234601 | 55 | 44 | 0.0 | 1.0 | 0.00 | 0.00 | 0.00 | 46 | 1017.4 |
| 20260503234023 | 55 | 0 | 0.0 | 2.0 | 0.00 | 0.00 | 0.00 | 44 | 1017.4 |
| 20260503233524 | 55 | 311 | 0.0 | 2.0 | 0.00 | 0.00 | 0.00 | 41 | 1017.4 |
| 20260503233047 | 55 | 299 | 0.0 | 3.0 | 0.00 | 0.00 | 0.00 | 41 | 1017.4 |
| 20260503232523 | 56 | 283 | 1.0 | 3.0 | 0.00 | 0.00 | 0.00 | 41 | 1017.4 |
| 20260503232023 | 56 | 295 | 1.0 | 4.0 | 0.00 | 0.00 | 0.00 | 42 | 1017.4 |
| 20260503231542 | 56 | 47 | 1.0 | 4.0 | 0.00 | 0.00 | 0.00 | 45 | 1017.4 |
| 20260503231025 | 56 | 310 | 0.0 | 3.0 | 0.00 | 0.00 | 0.00 | 42 | 1017.5 |
| 20260503230523 | 56 | 308 | 0.0 | 3.0 | 0.00 | 0.00 | 0.00 | 40 | 1017.4 |
| 20260503230041 | 57 | 360 | 1.0 | 3.0 | 0.00 | 0.00 | 0.00 | 40 | 1017.4 |
| 20260503225522 | 57 | 269 | 1.0 | 4.0 | 0.00 | 0.00 | 0.00 | 41 | 1017.5 |
| 20260503225023 | 57 | 40 | 2.0 | 4.0 | 0.00 | 0.00 | 0.00 | 39 | 1017.4 |
| 20260503224539 | 57 | 292 | 1.0 | 4.0 | 0.00 | 0.00 | 0.00 | 40 | 1017.5 |
| 20260503224023 | 57 | 360 | 2.0 | 3.0 | 0.00 | 0.00 | 0.00 | 41 | 1017.6 |
| 20260503223523 | 57 | 308 | 0.0 | 3.0 | 0.00 | 0.00 | 0.00 | 38 | 1017.5 |
| 20260503223043 | 57 | 20 | 2.0 | 4.0 | 0.00 | 0.00 | 0.00 | 37 | 1017.5 |
| 20260503222522 | 58 | 15 | 2.0 | 4.0 | 0.00 | 0.00 | 0.00 | 40 | 1017.6 |
| 20260503222023 | 58 | 314 | 1.0 | 3.0 | 0.00 | 0.00 | 0.00 | 43 | 1017.6 |
| 20260503221553 | 58 | 0 | 1.0 | 2.0 | 0.00 | 0.00 | 0.00 | 39 | 1017.6 |
| 20260503221023 | 58 | 21 | 1.0 | 8.0 | 0.00 | 0.00 | 0.00 | 40 | 1017.8 |
| 20260503220523 | 58 | 18 | 2.0 | 8.0 | 0.00 | 0.00 | 0.00 | 40 | 1017.6 |
| 20260503220047 | 58 | 23 | 1.0 | 5.0 | 0.00 | 0.00 | 0.00 | 38 | 1017.7 |
| 20260503215523 | 58 | 269 | 1.0 | 3.0 | 0.00 | 0.00 | 0.00 | 40 | 1017.6 |
| 20260503215024 | 58 | 38 | 1.0 | 5.0 | 0.00 | 0.00 | 0.00 | 38 | 1017.6 |
| 20260503214539 | 58 | 294 | 1.0 | 5.0 | 0.00 | 0.00 | 0.00 | 39 | 1017.6 |
| 20260503214023 | 58 | 205 | 1.0 | 5.0 | 0.00 | 0.00 | 0.00 | 39 | 1017.4 |
| 20260503213523 | 58 | 283 | 1.0 | 5.0 | 0.00 | 0.00 | 0.00 | 39 | 1017.5 |
| 20260503213042 | 58 | 11 | 2.0 | 5.0 | 0.00 | 0.00 | 0.00 | 39 | 1017.5 |
| 20260503212525 | 58 | 290 | 2.0 | 5.0 | 0.00 | 0.00 | 0.00 | 39 | 1017.6 |
| 20260503212026 | 58 | 314 | 2.0 | 4.0 | 0.00 | 0.00 | 0.00 | 38 | 1017.6 |
| 20260503211546 | 58 | 341 | 1.0 | 4.0 | 0.00 | 0.00 | 0.00 | 38 | 1017.6 |
| 20260503211025 | 58 | 257 | 2.0 | 4.0 | 0.00 | 0.00 | 0.00 | 39 | 1017.5 |
| 20260503210526 | 59 | 344 | 1.0 | 4.0 | 0.00 | 0.00 | 0.00 | 39 | 1017.5 |
| 20260503210043 | 58 | 264 | 1.0 | 4.0 | 0.00 | 0.00 | 0.00 | 38 | 1017.6 |
| 20260503205528 | 58 | 34 | 1.0 | 6.0 | 0.00 | 0.00 | 0.00 | 40 | 1017.8 |
| 20260503205027 | 59 | 321 | 2.0 | 6.0 | 0.00 | 0.00 | 0.00 | 37 | 1017.8 |
| 20260503204546 | 59 | 298 | 2.0 | 6.0 | 0.00 | 0.00 | 0.00 | 37 | 1017.8 |
| 20260503204026 | 59 | 26 | 2.0 | 5.0 | 0.00 | 0.00 | 0.00 | 36 | 1017.8 |
| 20260503203523 | 59 | 24 | 1.0 | 4.0 | 0.00 | 0.00 | 0.00 | 38 | 1017.7 |
| 20260503203054 | 58 | 48 | 1.0 | 5.0 | 0.00 | 0.00 | 0.00 | 37 | 1018.0 |
| 20260503202526 | 58 | 305 | 1.0 | 6.0 | 0.00 | 0.00 | 0.00 | 37 | 1018.1 |
| 20260503202028 | 59 | 17 | 3.0 | 6.0 | 0.00 | 0.00 | 0.00 | 36 | 1018.1 |
| 20260503201549 | 59 | 272 | 2.0 | 6.0 | 0.00 | 0.00 | 0.00 | 39 | 1018.1 |
| 20260503201023 | 59 | 18 | 3.0 | 6.0 | 0.00 | 0.00 | 0.00 | 36 | 1018.2 |
| 20260503200526 | 58 | 328 | 2.0 | 6.0 | 0.00 | 0.00 | 0.00 | 37 | 1018.3 |
| 20260503200039 | 58 | 331 | 2.0 | 6.0 | 0.00 | 0.00 | 0.00 | 39 | 1018.4 |
| 20260503195525 | 58 | 305 | 3.0 | 6.0 | 0.00 | 0.00 | 0.00 | 36 | 1018.3 |
| 20260503195027 | 58 | 342 | 1.0 | 6.0 | 0.00 | 0.00 | 0.00 | 36 | 1018.5 |
| 20260503194555 | 58 | 262 | 3.0 | 6.0 | 0.00 | 0.00 | 0.00 | 37 | 1018.7 |
| 20260503194026 | 58 | 307 | 3.0 | 5.0 | 0.00 | 0.00 | 0.00 | 39 | 1018.6 |
| 20260503193530 | 58 | 307 | 2.0 | 4.0 | 0.00 | 0.00 | 0.00 | 37 | 1018.8 |
| 20260503193045 | 58 | 0 | 1.0 | 9.0 | 0.00 | 0.00 | 0.00 | 37 | 1018.9 |
| 20260503192525 | 58 | 285 | 3.0 | 9.0 | 0.00 | 0.00 | 0.00 | 39 | 1018.8 |
| 20260503192026 | 57 | 342 | 1.0 | 5.0 | 0.00 | 0.00 | 0.00 | 38 | 1018.9 |
| 20260503191547 | 57 | 34 | 2.0 | 5.0 | 0.00 | 0.00 | 0.00 | 37 | 1019.0 |
| 20260503191027 | 57 | 305 | 3.0 | 5.0 | 0.00 | 0.00 | 0.00 | 38 | 1019.1 |
| 20260503190527 | 56 | 259 | 2.0 | 5.0 | 0.00 | 0.00 | 0.00 | 39 | 1019.2 |
| 20260503190047 | 55 | 247 | 2.0 | 5.0 | 0.00 | 0.00 | 0.00 | 38 | 1019.2 |
| 20260503185523 | 55 | 1 | 1.0 | 3.0 | 0.00 | 0.00 | 0.00 | 40 | 1019.2 |
| 20260503185026 | 55 | 41 | 2.0 | 4.0 | 0.00 | 0.00 | 0.00 | 41 | 1019.1 |
| 20260503184543 | 56 | 19 | 1.0 | 7.0 | 0.00 | 0.00 | 0.00 | 39 | 1019.3 |
| 20260503184029 | 56 | 41 | 2.0 | 7.0 | 0.00 | 0.00 | 0.00 | 39 | 1019.5 |
| 20260503183522 | 57 | 16 | 3.0 | 6.0 | 0.00 | 0.00 | 0.00 | 39 | 1019.4 |
| 20260503183039 | 56 | 109 | 1.0 | 5.0 | 0.00 | 0.00 | 0.00 | 39 | 1019.4 |
| 20260503182525 | 56 | 35 | 2.0 | 5.0 | 0.00 | 0.00 | 0.00 | 41 | 1019.6 |
| 20260503182026 | 56 | 35 | 1.0 | 4.0 | 0.00 | 0.00 | 0.00 | 39 | 1019.7 |
| 20260503181547 | 57 | 293 | 2.0 | 6.0 | 0.00 | 0.00 | 0.00 | 38 | 1019.8 |
| 20260503181027 | 56 | 167 | 2.0 | 6.0 | 0.00 | 0.00 | 0.00 | 38 | 1019.7 |
| 20260503180527 | 57 | 344 | 2.0 | 5.0 | 0.00 | 0.00 | 0.00 | 40 | 1019.8 |
| 20260503180057 | 56 | 154 | 2.0 | 5.0 | 0.00 | 0.00 | 0.00 | 40 | 1019.9 |
| 20260503175526 | 55 | 14 | 3.0 | 5.0 | 0.00 | 0.00 | 0.00 | 39 | 1020.0 |
| 20260503175026 | 55 | 36 | 3.0 | 7.0 | 0.00 | 0.00 | 0.00 | 39 | 1020.1 |
| 20260503174545 | 54 | 305 | 2.0 | 7.0 | 0.00 | 0.00 | 0.00 | 40 | 1020.1 |
| 20260503174027 | 54 | 62 | 3.0 | 6.0 | 0.00 | 0.00 | 0.00 | 38 | 1020.3 |
| 20260503173527 | 54 | 292 | 2.0 | 6.0 | 0.00 | 0.00 | 0.00 | 38 | 1020.2 |
| 20260503173044 | 54 | 23 | 2.0 | 5.0 | 0.00 | 0.00 | 0.00 | 41 | 1020.2 |
| 20260503172526 | 54 | 231 | 2.0 | 9.0 | 0.00 | 0.00 | 0.00 | 41 | 1020.3 |
| 20260503172028 | 53 | 28 | 2.0 | 9.0 | 0.00 | 0.00 | 0.00 | 42 | 1020.4 |
| 20260503171546 | 53 | 341 | 3.0 | 9.0 | 0.00 | 0.00 | 0.00 | 41 | 1020.4 |
| 20260503171026 | 53 | 54 | 2.0 | 6.0 | 0.00 | 0.00 | 0.00 | 42 | 1020.4 |
| 20260503170527 | 53 | 304 | 1.0 | 5.0 | 0.00 | 0.00 | 0.00 | 42 | 1020.4 |
| 20260503150525 | 47 | 8 | 2.0 | 5.0 | 0.00 | 0.00 | 0.00 | 56 | 1021.3 |
| 20260503131028 | 39 | 0 | 0.0 | 1.0 | 0.00 | 0.00 | 0.00 | 82 | 1021.5 |
| 20260503130527 | 39 | 249 | 0.0 | 1.0 | 0.00 | 0.00 | 0.00 | 84 | 1021.5 |
| 20260503110524 | 34 | 0 | 0.0 | 1.0 | 0.00 | 0.00 | 0.00 | 93 | 1020.8 |
| 20260503081538 | 35 | 0 | 0.0 | 0.0 | 0.00 | 0.00 | 0.00 | 90 | 1019.9 |
| 20260503081026 | 35 | 0 | 0.0 | 0.0 | 0.00 | 0.00 | 0.00 | 90 | 1019.8 |
| 20260503080523 | 35 | 0 | 0.0 | 0.0 | 0.00 | 0.00 | 0.00 | 89 | 1019.8 |
| 20260503072525 | 36 | 0 | 0.0 | 0.0 | 0.00 | 0.00 | 0.00 | 87 | 1019.3 |
| 20260503072023 | 36 | 0 | 0.0 | 0.0 | 0.00 | 0.00 | 0.00 | 86 | 1019.3 |
| 20260503071556 | 36 | 0 | 0.0 | 0.0 | 0.00 | 0.00 | 0.00 | 87 | 1019.3 |
| 20260503071025 | 37 | 0 | 0.0 | 0.0 | 0.00 | 0.00 | 0.00 | 86 | 1019.3 |
| 20260503070527 | 37 | 0 | 0.0 | 0.0 | 0.00 | 0.00 | 0.00 | 86 | 1019.4 |